When you browse on this site, cookies collect data to enhance your experience and personalize the content and advertising you see.
Visit our Privacy Policy to learn more. By continuing to use the site, you agree to this use of cookies and data.
  • In Hungary
  • List of Countries
  • For 7 days
  • Water Temperature
  • Weather Map
  • News
  • Weather Widgets
  • user-avatar
    Login

    Hourly Weather Legniszewo

    Today, 22 August, Thursday

    Time Temperature Precipitation Wind Pressure Humidity
    00:00 +15°C° 0 mm 1 mps 761 mmHg 76%
    01:00 +15°C° 0 mm 2 mps 761 mmHg 77%
    02:00 +14°C° 0 mm 1 mps 761 mmHg 78%
    03:00 +14°C° 0 mm 1 mps 761 mmHg 80%
    04:00 +14°C° 0 mm 1 mps 761 mmHg 81%
    05:00 +15°C° 0 mm 1 mps 762 mmHg 79%
    06:00 +16°C° 0 mm 1 mps 762 mmHg 77%
    07:00 +16°C° 0 mm 2 mps 762 mmHg 75%
    08:00 +18°C° 0 mm 2 mps 762 mmHg 69%
    09:00 +19°C° 0 mm 2 mps 762 mmHg 64%
    10:00 +21°C° 0 mm 2 mps 762 mmHg 59%
    11:00 +22°C° 0 mm 3 mps 762 mmHg 55%
    12:00 +22°C° 0 mm 3 mps 762 mmHg 52%
    13:00 +24°C° 0 mm 3 mps 761 mmHg 49%
    14:00 +24°C° 0 mm 3 mps 761 mmHg 49%
    15:00 +24°C° 0 mm 2 mps 761 mmHg 49%
    16:00 +24°C° 0 mm 2 mps 761 mmHg 48%
    17:00 +23°C° 0 mm 2 mps 760 mmHg 53%
    18:00 +21°C° 0 mm 2 mps 760 mmHg 57%
    19:00 +20°C° 0 mm 2 mps 760 mmHg 61%
    20:00 +19°C° 0 mm 2 mps 760 mmHg 64%
    21:00 +18°C° 0 mm 2 mps 761 mmHg 66%
    22:00 +17°C° 0 mm 2 mps 761 mmHg 69%
    23:00 +17°C° 0 mm 2 mps 761 mmHg 70%

    Tomorrow, 23 August, Friday

    Time Temperature Precipitation Wind Pressure Humidity
    00:00 +16°C° 0 mm 2 mps 761 mmHg 71%
    01:00 +16°C° 0 mm 2 mps 761 mmHg 73%
    02:00 +15°C° 0 mm 2 mps 761 mmHg 73%
    03:00 +15°C° 0 mm 2 mps 761 mmHg 74%
    04:00 +15°C° 0 mm 2 mps 761 mmHg 75%
    05:00 +16°C° 0 mm 2 mps 761 mmHg 72%
    06:00 +17°C° 0 mm 2 mps 761 mmHg 70%
    07:00 +18°C° 0 mm 2 mps 761 mmHg 67%
    08:00 +19°C° 0 mm 2 mps 761 mmHg 62%
    09:00 +21°C° 0 mm 2 mps 761 mmHg 56%
    10:00 +24°C° 0 mm 2 mps 761 mmHg 50%
    11:00 +25°C° 0 mm 2 mps 761 mmHg 48%
    12:00 +25°C° 0 mm 2 mps 761 mmHg 45%
    13:00 +26°C° 0 mm 2 mps 760 mmHg 43%
    14:00 +26°C° 0 mm 2 mps 760 mmHg 43%
    15:00 +26°C° 0 mm 3 mps 760 mmHg 43%
    16:00 +27°C° 0 mm 3 mps 760 mmHg 43%
    17:00 +25°C° 0 mm 2 mps 759 mmHg 48%
    18:00 +23°C° 0 mm 2 mps 759 mmHg 53%
    19:00 +21°C° 0 mm 2 mps 759 mmHg 58%
    20:00 +20°C° 0 mm 2 mps 759 mmHg 61%
    21:00 +19°C° 0 mm 2 mps 759 mmHg 63%
    22:00 +18°C° 0 mm 2 mps 759 mmHg 65%
    23:00 +18°C° 0 mm 2 mps 759 mmHg 66%

    Day after tomorrow, 24 August, Saturday

    Time Temperature Precipitation Wind Pressure Humidity
    00:00 +17°C° 0 mm 3 mps 759 mmHg 68%
    01:00 +17°C° 0 mm 3 mps 759 mmHg 69%
    02:00 +17°C° 0 mm 3 mps 759 mmHg 71%
    03:00 +16°C° 0 mm 2 mps 758 mmHg 74%
    04:00 +16°C° 0 mm 2 mps 758 mmHg 76%
    05:00 +17°C° 0 mm 3 mps 758 mmHg 74%
    06:00 +18°C° 0 mm 3 mps 758 mmHg 72%
    07:00 +19°C° 0 mm 3 mps 758 mmHg 70%
    08:00 +20°C° 0 mm 3 mps 758 mmHg 64%
    09:00 +22°C° 0 mm 4 mps 758 mmHg 58%
    10:00 +25°C° 0 mm 4 mps 758 mmHg 52%
    11:00 +26°C° 0 mm 4 mps 758 mmHg 50%
    12:00 +26°C° 0 mm 4 mps 758 mmHg 48%
    13:00 +27°C° 0 mm 4 mps 757 mmHg 46%
    14:00 +27°C° 0 mm 4 mps 757 mmHg 47%
    15:00 +27°C° 0 mm 4 mps 757 mmHg 48%
    16:00 +27°C° 0 mm 4 mps 757 mmHg 49%
    17:00 +26°C° 0 mm 3 mps 756 mmHg 54%
    18:00 +24°C° 0 mm 3 mps 756 mmHg 58%
    19:00 +22°C° 0 mm 3 mps 756 mmHg 63%
    20:00 +22°C° 0 mm 4 mps 756 mmHg 64%
    21:00 +21°C° 0 mm 4 mps 757 mmHg 65%
    22:00 +21°C° 0 mm 4 mps 757 mmHg 65%
    23:00 +21°C° 0 mm 4 mps 756 mmHg 67%

    25 August, Sunday

    Time Temperature Precipitation Wind Pressure Humidity
    00:00 +20°C° 0 mm 4 mps 756 mmHg 69%
    01:00 +20°C° 0 mm 4 mps 756 mmHg 71%
    02:00 +19°C° 0 mm 4 mps 756 mmHg 72%
    03:00 +19°C° 0 mm 4 mps 756 mmHg 72%
    04:00 +19°C° 0 mm 4 mps 756 mmHg 73%
    05:00 +19°C° 0 mm 4 mps 756 mmHg 71%
    06:00 +20°C° 0 mm 4 mps 756 mmHg 69%
    07:00 +20°C° 0 mm 5 mps 756 mmHg 68%
    08:00 +22°C° 0 mm 5 mps 756 mmHg 63%
    09:00 +23°C° 0 mm 5 mps 756 mmHg 58%
    10:00 +26°C° 0 mm 6 mps 756 mmHg 54%
    11:00 +27°C° 0 mm 5 mps 756 mmHg 52%
    12:00 +27°C° 0 mm 5 mps 756 mmHg 50%
    13:00 +28°C° 0 mm 5 mps 756 mmHg 48%
    14:00 +28°C° 0 mm 5 mps 756 mmHg 48%
    15:00 +28°C° 0 mm 5 mps 756 mmHg 48%
    16:00 +28°C° 0 mm 5 mps 755 mmHg 49%
    17:00 +27°C° 0 mm 4 mps 755 mmHg 53%
    18:00 +26°C° 0 mm 4 mps 755 mmHg 57%
    19:00 +23°C° 0 mm 4 mps 755 mmHg 62%
    20:00 +23°C° 0 mm 4 mps 755 mmHg 63%
    21:00 +22°C° 0 mm 4 mps 756 mmHg 63%
    22:00 +21°C° 0 mm 5 mps 756 mmHg 64%
    23:00 +21°C° 0.2 mm 4 mps 756 mmHg 66%

    26 August, Monday

    Time Temperature Precipitation Wind Pressure Humidity
    00:00 +21°C° 0.2 mm 4 mps 756 mmHg 69%
    01:00 +20°C° 0.2 mm 4 mps 756 mmHg 71%
    02:00 +20°C° 0.2 mm 4 mps 755 mmHg 74%
    03:00 +20°C° 0.2 mm 4 mps 755 mmHg 77%
    04:00 +19°C° 0.2 mm 4 mps 755 mmHg 79%
    05:00 +20°C° 0.2 mm 4 mps 755 mmHg 79%
    06:00 +20°C° 0.2 mm 4 mps 755 mmHg 78%
    07:00 +20°C° 0.2 mm 4 mps 756 mmHg 77%
    08:00 +22°C° 0.2 mm 4 mps 756 mmHg 73%
    09:00 +23°C° 0.2 mm 4 mps 756 mmHg 69%
    10:00 +25°C° 0.2 mm 4 mps 756 mmHg 65%
    11:00 +27°C° 0 mm 4 mps 756 mmHg 61%
    12:00 +28°C° 0 mm 4 mps 755 mmHg 57%
    13:00 +30°C° 0 mm 4 mps 755 mmHg 53%
    14:00 +29°C° 0 mm 3 mps 755 mmHg 53%
    15:00 +29°C° 0 mm 3 mps 755 mmHg 54%
    16:00 +29°C° 0 mm 2 mps 755 mmHg 55%
    17:00 +28°C° 0 mm 2 mps 755 mmHg 59%
    18:00 +27°C° 0 mm 1 mps 754 mmHg 62%
    19:00 +26°C° 0 mm 1 mps 754 mmHg 66%
    20:00 +25°C° 0 mm 1 mps 755 mmHg 69%
    21:00 +24°C° 0 mm 2 mps 755 mmHg 71%
    22:00 +24°C° 0 mm 2 mps 755 mmHg 73%
    23:00 +23°C° 0.1 mm 2 mps 755 mmHg 75%

    27 August, Tuesday

    Time Temperature Precipitation Wind Pressure Humidity
    00:00 +23°C° 0.1 mm 1 mps 755 mmHg 78%
    01:00 +22°C° 0.1 mm 1 mps 755 mmHg 80%
    02:00 +22°C° 0 mm 1 mps 755 mmHg 81%
    03:00 +22°C° 0 mm 1 mps 755 mmHg 83%
    04:00 +20°C° 0 mm 2 mps 754 mmHg 85%
    05:00 +21°C° 0 mm 2 mps 755 mmHg 83%
    06:00 +23°C° 0 mm 2 mps 755 mmHg 82%
    07:00 +23°C° 0 mm 2 mps 755 mmHg 80%
    08:00 +25°C° 0 mm 2 mps 755 mmHg 73%
    09:00 +27°C° 0 mm 2 mps 755 mmHg 66%
    10:00 +28°C° 0 mm 2 mps 755 mmHg 59%
    11:00 +29°C° 0 mm 2 mps 755 mmHg 55%
    12:00 +30°C° 0 mm 2 mps 755 mmHg 51%
    13:00 +31°C° 0 mm 2 mps 754 mmHg 47%
    14:00 +31°C° 0 mm 2 mps 754 mmHg 46%
    15:00 +32°C° 0 mm 2 mps 754 mmHg 45%
    16:00 +32°C° 0 mm 2 mps 754 mmHg 45%
    17:00 +30°C° 0 mm 2 mps 753 mmHg 50%
    18:00 +28°C° 0 mm 2 mps 753 mmHg 55%
    19:00 +27°C° 0 mm 2 mps 753 mmHg 60%
    20:00 +26°C° 0.8 mm 2 mps 753 mmHg 66%
    21:00 +25°C° 0.8 mm 2 mps 753 mmHg 72%
    22:00 +24°C° 0.8 mm 2 mps 753 mmHg 78%
    23:00 +23°C° 0.5 mm 2 mps 753 mmHg 79%
    Show more